�������l�o���
Date,Time,MP-1(��Sv/h),MP-2(��Sv/h),MP-3(��Sv/h),MP-4(��Sv/h),MP-5(��Sv/h),MP-6(��Sv/h),MP-7(��Sv/h),MP-8(��Sv/h),����,����(m/s),���J
2023/07/22,00:00,0.508,0.776,0.478,0.931,0.684,0.315,0.559,0.527,�k,2.2,��
2023/07/22,00:10,0.506,0.777,0.478,0.931,0.685,0.316,0.559,0.527,�k,2.0,��
2023/07/22,00:20,0.508,0.774,0.478,0.934,0.685,0.316,0.560,0.527,�k,1.9,��
2023/07/22,00:30,0.509,0.774,0.478,0.932,0.684,0.316,0.560,0.528,�k,2.0,��
2023/07/22,00:40,0.509,0.777,0.477,0.932,0.686,0.317,0.559,0.528,�k,2.3,��
2023/07/22,00:50,0.508,0.777,0.477,0.935,0.686,0.316,0.561,0.527,�k�k��,2.2,��
2023/07/22,01:00,0.511,0.776,0.477,0.934,0.684,0.317,0.560,0.528,�k,2.3,��
2023/07/22,01:10,0.507,0.777,0.478,0.934,0.686,0.316,0.559,0.527,�k�k��,2.2,��
2023/07/22,01:20,0.508,0.778,0.478,0.931,0.683,0.318,0.560,0.527,�k,2.0,��
2023/07/22,01:30,0.508,0.777,0.478,0.934,0.685,0.316,0.560,0.528,�k��,2.3,��
2023/07/22,01:40,0.509,0.778,0.479,0.933,0.686,0.316,0.560,0.528,�k��,1.7,��
2023/07/22,01:50,0.509,0.777,0.477,0.934,0.684,0.316,0.563,0.527,���k��,2.0,��
2023/07/22,02:00,0.509,0.775,0.478,0.933,0.686,0.316,0.562,0.528,�k��,1.7,��
2023/07/22,02:10,0.508,0.776,0.478,0.933,0.686,0.316,0.560,0.527,�k��,2.2,��
2023/07/22,02:20,0.511,0.775,0.478,0.932,0.686,0.318,0.562,0.527,�k�k��,2.5,��
2023/07/22,02:30,0.510,0.776,0.479,0.933,0.686,0.317,0.562,0.526,�k�k��,3.0,��
2023/07/22,02:40,0.511,0.777,0.477,0.934,0.686,0.317,0.561,0.530,�k�k��,3.1,��
2023/07/22,02:50,0.510,0.775,0.477,0.931,0.683,0.317,0.560,0.526,�k�k��,3.0,��
2023/07/22,03:00,0.509,0.777,0.479,0.933,0.686,0.317,0.561,0.526,�k�k��,3.3,��
2023/07/22,03:10,0.509,0.775,0.478,0.933,0.686,0.317,0.561,0.527,�k�k��,2.6,��
2023/07/22,03:20,0.509,0.776,0.478,0.934,0.686,0.316,0.561,0.527,�k�k��,2.3,��
2023/07/22,03:30,0.510,0.774,0.478,0.935,0.687,0.318,0.562,0.527,�k�k��,1.9,��
2023/07/22,03:40,0.510,0.777,0.478,0.934,0.687,0.318,0.561,0.528,�k�k��,1.2,��
2023/07/22,03:50,0.510,0.777,0.478,0.933,0.688,0.317,0.562,0.527,�k,1.4,��
2023/07/22,04:00,0.510,0.776,0.479,0.935,0.687,0.317,0.562,0.529,�k�k��,3.0,��
2023/07/22,04:10,0.510,0.776,0.480,0.933,0.687,0.318,0.562,0.528,�k�k��,2.8,��
2023/07/22,04:20,0.511,0.775,0.478,0.934,0.685,0.318,0.560,0.527,�k�k��,2.0,��
2023/07/22,04:30,0.510,0.776,0.479,0.935,0.688,0.318,0.562,0.528,�k�k��,2.5,��
2023/07/22,04:40,0.512,0.776,0.478,0.933,0.687,0.318,0.561,0.525,�k��,3.8,��
2023/07/22,04:50,0.511,0.775,0.479,0.937,0.689,0.316,0.563,0.527,�k�k��,4.2,��
2023/07/22,05:00,0.511,0.777,0.478,0.935,0.688,0.316,0.561,0.527,�k��,4.0,��
2023/07/22,05:10,0.511,0.774,0.478,0.938,0.688,0.317,0.564,0.529,�k��,3.7,��
2023/07/22,05:20,0.511,0.775,0.478,0.935,0.686,0.316,0.561,0.527,�k��,2.6,��
2023/07/22,05:30,0.509,0.774,0.478,0.935,0.688,0.318,0.561,0.527,�k��,2.3,��
2023/07/22,05:40,0.512,0.776,0.479,0.935,0.686,0.317,0.562,0.528,�k��,1.9,��
2023/07/22,05:50,0.510,0.776,0.477,0.935,0.686,0.316,0.562,0.528,�k�k��,2.3,��
2023/07/22,06:00,0.511,0.774,0.478,0.936,0.687,0.317,0.562,0.526,�k�k��,2.3,��
2023/07/22,06:10,0.510,0.778,0.477,0.937,0.688,0.317,0.563,0.529,�k,2.3,��
2023/07/22,06:20,0.510,0.776,0.476,0.936,0.687,0.317,0.564,0.527,�k,2.2,��
2023/07/22,06:30,0.509,0.773,0.477,0.934,0.686,0.315,0.563,0.527,�k�k��,1.9,��
2023/07/22,06:40,0.511,0.775,0.478,0.935,0.686,0.317,0.562,0.527,�k��,1.4,��
2023/07/22,06:50,0.510,0.775,0.478,0.935,0.684,0.318,0.562,0.529,�k,1.7,��
2023/07/22,07:00,0.510,0.774,0.477,0.934,0.684,0.316,0.563,0.529,�k�k��,2.6,��
2023/07/22,07:10,0.508,0.775,0.478,0.932,0.687,0.315,0.562,0.530,�k�k��,1.9,��
2023/07/22,07:20,0.507,0.774,0.480,0.934,0.687,0.315,0.563,0.529,�k�k��,2.0,��
2023/07/22,07:30,0.509,0.774,0.479,0.933,0.685,0.316,0.562,0.528,�k�k��,2.0,��
2023/07/22,07:40,0.508,0.774,0.477,0.935,0.685,0.315,0.560,0.529,���k��,2.5,��
2023/07/22,07:50,0.509,0.774,0.480,0.935,0.687,0.316,0.559,0.527,�k��,2.6,��
2023/07/22,08:00,0.509,0.776,0.477,0.934,0.686,0.316,0.561,0.527,�k�k��,3.1,��
2023/07/22,08:10,0.509,0.774,0.478,0.935,0.687,0.316,0.560,0.530,�k�k��,3.3,��
2023/07/22,08:20,0.509,0.774,0.478,0.937,0.685,0.317,0.562,0.526,�k�k��,3.0,��
2023/07/22,08:30,0.508,0.777,0.479,0.935,0.686,0.316,0.562,0.526,�k��,3.0,��
2023/07/22,08:40,0.510,0.776,0.478,0.934,0.688,0.316,0.561,0.526,�k�k��,2.9,��
2023/07/22,08:50,0.511,0.776,0.477,0.934,0.685,0.316,0.562,0.526,���k��,2.6,��
2023/07/22,09:00,0.510,0.778,0.477,0.934,0.687,0.315,0.561,0.528,���k��,3.1,��
2023/07/22,09:10,0.510,0.778,0.480,0.933,0.687,0.316,0.561,0.528,�k��,2.6,��
2023/07/22,09:20,0.511,0.777,0.479,0.936,0.685,0.316,0.562,0.527,���k��,3.0,��
2023/07/22,09:30,0.512,0.779,0.478,0.935,0.689,0.316,0.561,0.528,�k�k��,3.1,��
2023/07/22,09:40,0.511,0.778,0.480,0.937,0.688,0.316,0.562,0.526,�k��,2.9,��
2023/07/22,09:50,0.510,0.779,0.479,0.935,0.688,0.317,0.562,0.528,�k�k��,3.1,��
2023/07/22,10:00,0.509,0.778,0.480,0.935,0.688,0.316,0.561,0.527,�k��,3.1,��
2023/07/22,10:10,0.511,0.779,0.478,0.937,0.688,0.316,0.561,0.528,���k��,2.6,��
2023/07/22,10:20,0.510,0.781,0.479,0.936,0.686,0.317,0.562,0.527,�k��,3.2,��
2023/07/22,10:30,0.512,0.780,0.480,0.937,0.690,0.317,0.561,0.528,���k��,3.4,��
2023/07/22,10:40,0.514,0.779,0.481,0.937,0.689,0.318,0.561,0.528,�k��,3.3,��
2023/07/22,10:50,0.512,0.781,0.481,0.937,0.688,0.317,0.562,0.528,���k��,3.2,��
2023/07/22,11:00,0.512,0.781,0.480,0.935,0.691,0.317,0.561,0.527,���k��,3.2,��
2023/07/22,11:10,0.514,0.782,0.480,0.935,0.692,0.317,0.562,0.529,���k��,3.6,��
2023/07/22,11:20,0.513,0.783,0.482,0.936,0.692,0.317,0.563,0.528,���k��,3.3,��
2023/07/22,11:30,0.513,0.780,0.481,0.935,0.691,0.318,0.562,0.527,��,3.4,��
2023/07/22,11:40,0.514,0.782,0.480,0.934,0.691,0.319,0.563,0.529,��,2.9,��
2023/07/22,11:50,0.514,0.783,0.482,0.936,0.691,0.317,0.563,0.529,��,2.8,��
2023/07/22,12:00,0.515,0.783,0.481,0.936,0.692,0.318,0.563,0.530,��,3.3,��
2023/07/22,12:10,0.514,0.784,0.482,0.937,0.693,0.318,0.562,0.529,��,2.6,��
2023/07/22,12:20,0.515,0.783,0.481,0.936,0.691,0.317,0.562,0.530,��,2.6,��
2023/07/22,12:30,0.513,0.784,0.483,0.938,0.692,0.318,0.562,0.530,��,2.8,��
2023/07/22,12:40,0.513,0.786,0.482,0.940,0.693,0.319,0.560,0.529,��,2.8,��
2023/07/22,12:50,0.516,0.786,0.482,0.935,0.693,0.318,0.560,0.530,�쓌,3.3,��
2023/07/22,13:00,0.515,0.783,0.483,0.938,0.695,0.317,0.562,0.529,��,1.9,��
2023/07/22,13:10,0.515,0.787,0.482,0.938,0.694,0.319,0.565,0.530,��쓌,3.5,��
2023/07/22,13:20,0.515,0.786,0.484,0.939,0.696,0.318,0.562,0.530,���쓌,2.2,��
2023/07/22,13:30,0.515,0.787,0.484,0.937,0.695,0.318,0.564,0.530,���쓌,2.6,��
2023/07/22,13:40,0.515,0.787,0.483,0.937,0.696,0.318,0.562,0.530,���쓌,2.8,��
2023/07/22,13:50,0.515,0.786,0.484,0.938,0.695,0.318,0.564,0.529,���쓌,3.2,��
2023/07/22,14:00,0.515,0.788,0.483,0.938,0.696,0.319,0.562,0.530,��,2.9,��
2023/07/22,14:10,0.516,0.788,0.484,0.939,0.695,0.319,0.563,0.531,���쓌,2.5,��
2023/07/22,14:20,0.515,0.786,0.483,0.939,0.697,0.318,0.563,0.530,��,2.8,��
2023/07/22,14:30,0.517,0.787,0.484,0.940,0.696,0.320,0.564,0.529,���쓌,3.4,��
2023/07/22,14:40,0.516,0.787,0.485,0.940,0.696,0.319,0.565,0.530,���쓌,3.0,��
2023/07/22,14:50,0.517,0.789,0.483,0.941,0.696,0.320,0.564,0.530,���쓌,3.8,��
2023/07/22,15:00,0.518,0.789,0.484,0.940,0.697,0.319,0.562,0.531,���쓌,3.2,��
2023/07/22,15:10,0.517,0.788,0.485,0.941,0.697,0.318,0.565,0.531,�쓌,3.4,��
2023/07/22,15:20,0.516,0.788,0.484,0.940,0.696,0.319,0.565,0.530,���쓌,3.0,��
2023/07/22,15:30,0.517,0.788,0.483,0.942,0.695,0.321,0.564,0.528,���쓌,3.6,��
2023/07/22,15:40,0.518,0.789,0.485,0.941,0.697,0.318,0.563,0.531,�쓌,3.3,��
2023/07/22,15:50,0.516,0.789,0.482,0.943,0.699,0.320,0.564,0.530,���쓌,2.8,��
2023/07/22,16:00,0.518,0.790,0.485,0.943,0.698,0.319,0.563,0.530,���쓌,3.0,��
2023/07/22,16:10,0.517,0.788,0.484,0.942,0.698,0.318,0.563,0.528,��,3.1,��
2023/07/22,16:20,0.517,0.788,0.483,0.941,0.698,0.319,0.562,0.529,��쓌,3.2,��
2023/07/22,16:30,0.517,0.787,0.485,0.944,0.697,0.319,0.561,0.530,�쓌,3.1,��
2023/07/22,16:40,0.517,0.788,0.482,0.942,0.699,0.318,0.562,0.529,��쓌,2.6,��
2023/07/22,16:50,0.517,0.789,0.483,0.945,0.697,0.319,0.561,0.529,��쓌,3.7,��
2023/07/22,17:00,0.516,0.790,0.482,0.942,0.698,0.320,0.564,0.530,��쓌,3.9,��
2023/07/22,17:10,0.517,0.789,0.483,0.943,0.698,0.319,0.563,0.530,��쓌,3.5,��
2023/07/22,17:20,0.516,0.787,0.485,0.945,0.698,0.319,0.562,0.530,��쓌,3.1,��
2023/07/22,17:30,0.517,0.788,0.484,0.942,0.697,0.320,0.561,0.527,��쓌,3.2,��
2023/07/22,17:40,0.516,0.787,0.483,0.943,0.699,0.320,0.562,0.528,��쓌,2.3,��
2023/07/22,17:50,0.517,0.789,0.485,0.943,0.699,0.321,0.561,0.529,��쓌,2.3,��
2023/07/22,18:00,0.517,0.790,0.485,0.944,0.701,0.321,0.562,0.529,��쓌,2.8,��
2023/07/22,18:10,0.515,0.789,0.484,0.944,0.699,0.319,0.563,0.529,��쓌,3.1,��
2023/07/22,18:20,0.517,0.789,0.486,0.945,0.700,0.319,0.562,0.530,��쓌,3.6,��
2023/07/22,18:30,0.519,0.791,0.485,0.945,0.700,0.319,0.562,0.530,��쓌,3.9,��
2023/07/22,18:40,0.516,0.792,0.485,0.945,0.700,0.321,0.561,0.530,��쓌,4.3,��
2023/07/22,18:50,0.517,0.791,0.486,0.945,0.700,0.320,0.561,0.530,��쓌,3.9,��
2023/07/22,19:00,0.518,0.790,0.485,0.946,0.700,0.320,0.562,0.530,��쓌,4.2,��
2023/07/22,19:10,0.517,0.792,0.484,0.944,0.699,0.321,0.563,0.530,��쓌,4.4,��
2023/07/22,19:20,0.516,0.790,0.484,0.945,0.700,0.318,0.561,0.529,��,4.1,��
2023/07/22,19:30,0.517,0.790,0.485,0.945,0.698,0.318,0.562,0.530,��쓌,4.2,��
2023/07/22,19:40,0.518,0.791,0.487,0.946,0.702,0.320,0.561,0.530,��쓌,4.2,��
2023/07/22,19:50,0.517,0.791,0.483,0.945,0.699,0.321,0.562,0.530,��,3.9,��
2023/07/22,20:00,0.518,0.792,0.485,0.947,0.699,0.319,0.562,0.531,��쓌,3.6,��
2023/07/22,20:10,0.517,0.791,0.484,0.944,0.700,0.320,0.563,0.530,��,4.8,��
2023/07/22,20:20,0.515,0.790,0.484,0.943,0.701,0.321,0.563,0.530,��,3.8,��
2023/07/22,20:30,0.516,0.791,0.487,0.945,0.699,0.321,0.563,0.530,��,4.1,��
2023/07/22,20:40,0.518,0.790,0.484,0.946,0.701,0.319,0.561,0.531,��,4.9,��
2023/07/22,20:50,0.516,0.792,0.486,0.946,0.700,0.319,0.562,0.530,��,4.4,��
2023/07/22,21:00,0.517,0.793,0.484,0.945,0.698,0.319,0.562,0.530,��,4.7,��
2023/07/22,21:10,0.516,0.793,0.484,0.944,0.699,0.319,0.561,0.531,��,4.7,��
2023/07/22,21:20,0.516,0.792,0.486,0.946,0.700,0.319,0.562,0.530,��,4.3,��
2023/07/22,21:30,0.515,0.791,0.487,0.946,0.700,0.318,0.562,0.530,��,4.2,��
2023/07/22,21:40,0.517,0.790,0.485,0.947,0.701,0.320,0.563,0.529,��쓌,4.4,��
2023/07/22,21:50,0.515,0.789,0.486,0.944,0.699,0.321,0.563,0.530,��,3.6,��
2023/07/22,22:00,0.516,0.789,0.485,0.947,0.701,0.319,0.563,0.532,��,3.5,��
2023/07/22,22:10,0.516,0.790,0.486,0.945,0.700,0.318,0.563,0.528,��,3.6,��
2023/07/22,22:20,0.515,0.789,0.486,0.947,0.700,0.319,0.561,0.531,��쓌,3.8,��
2023/07/22,22:30,0.515,0.792,0.485,0.945,0.699,0.319,0.561,0.530,��,3.9,��
2023/07/22,22:40,0.518,0.791,0.486,0.946,0.699,0.318,0.562,0.530,��,4.2,��
2023/07/22,22:50,0.517,0.791,0.485,0.948,0.699,0.320,0.562,0.529,��,5.4,��
2023/07/22,23:00,0.517,0.790,0.487,0.945,0.701,0.319,0.562,0.530,��,4.9,��
2023/07/22,23:10,0.517,0.791,0.486,0.945,0.700,0.319,0.562,0.530,��,5.1,��
2023/07/22,23:20,0.519,0.791,0.487,0.947,0.699,0.320,0.564,0.530,��,5.6,��
2023/07/22,23:30,0.517,0.790,0.485,0.946,0.702,0.320,0.562,0.530,��,5.4,��
2023/07/22,23:40,0.517,0.792,0.487,0.946,0.701,0.319,0.563,0.531,��,5.3,��
2023/07/22,23:50,0.517,0.791,0.487,0.946,0.699,0.319,0.564,0.530,��쐼,3.7,��
